Location: Street
(51.1247°N, 2.7429°W)
Time: 08:34:34
(UTC+00:00)

Tiros 1 - Pass Details

Date: 03 December 2020
Orbit: 630 x 663 km, 48.4° (Epoch: 28 January)

Event Time Altitude Azimuth Distance (km) Brightness Sun altitude
Rises 15:10:08 0° 243° (WSW) 2,990 12.2 5.7°
Reaches altitude 10° 15:12:32 10° 239° (WSW) 2,079 11.7 5.5°
Maximum altitude 15:17:11 50° 164° (SSE) 839 8.1 5.0°
Drops below altitude 10° 15:21:49 10° 89° (E) 2,076 9.4 4.4°
Sets 15:24:12 0° 85° (E) 2,986 10.1 4.2°
